When you browse on this site, cookies collect data to enhance your experience and personalize the content and advertising you see.
Visit our Privacy Policy to learn more. By continuing to use the site, you agree to this use of cookies and data.
  • en France
  • Liste des pays
  • À 7 jours
  • Température de l'eau
  • Carte météo
  • Widgets météo
  • user-avatar
    Se connecter

    Météo par heure à Winnipeg

    Ce jour, 25 Mai, Lundi

    Heure Température Précipitation Vent Pression Humidité
    00:00 +12°C° 0 mm 4 m/s 738 mmHg 67%
    01:00 +12°C° 0.2 mm 4 m/s 738 mmHg 71%
    02:00 +11°C° 0.2 mm 4 m/s 738 mmHg 74%
    03:00 +11°C° 0.2 mm 4 m/s 739 mmHg 78%
    04:00 +11°C° 0 mm 3 m/s 739 mmHg 78%
    05:00 +11°C° 0 mm 3 m/s 739 mmHg 78%
    06:00 +12°C° 0 mm 2 m/s 739 mmHg 78%
    07:00 +13°C° 0 mm 2 m/s 740 mmHg 72%
    08:00 +14°C° 0 mm 2 m/s 740 mmHg 66%
    09:00 +15°C° 0 mm 2 m/s 740 mmHg 60%
    10:00 +17°C° 0 mm 2 m/s 740 mmHg 56%
    11:00 +18°C° 0 mm 2 m/s 740 mmHg 52%
    12:00 +19°C° 0 mm 2 m/s 740 mmHg 48%
    13:00 +20°C° 0 mm 2 m/s 740 mmHg 47%
    14:00 +22°C° 0 mm 1 m/s 739 mmHg 47%
    15:00 +22°C° 0 mm 1 m/s 739 mmHg 46%
    16:00 +22°C° 0 mm 1 m/s 739 mmHg 48%
    17:00 +22°C° 0 mm 1 m/s 739 mmHg 50%
    18:00 +22°C° 0 mm 1 m/s 739 mmHg 51%
    19:00 +20°C° 0 mm 1 m/s 739 mmHg 55%
    20:00 +19°C° 0 mm 1 m/s 739 mmHg 59%
    21:00 +16°C° 0 mm 1 m/s 739 mmHg 62%
    22:00 +16°C° 0 mm 1 m/s 739 mmHg 62%
    23:00 +16°C° 0 mm 1 m/s 738 mmHg 62%

    Demain, 26 Mai, Mardi

    Heure Température Précipitation Vent Pression Humidité
    00:00 +15°C° 0 mm 1 m/s 738 mmHg 62%
    01:00 +15°C° 0 mm 1 m/s 738 mmHg 63%
    02:00 +15°C° 0 mm 1 m/s 738 mmHg 64%
    03:00 +14°C° 0 mm 0 m/s 738 mmHg 64%
    04:00 +14°C° 0.1 mm 0 m/s 737 mmHg 68%
    05:00 +14°C° 0.1 mm 0 m/s 737 mmHg 71%
    06:00 +14°C° 0.1 mm 0 m/s 737 mmHg 74%
    07:00 +13°C° 0.6 mm 0 m/s 737 mmHg 79%
    08:00 +13°C° 0.6 mm 0 m/s 736 mmHg 84%
    09:00 +13°C° 0.6 mm 0 m/s 736 mmHg 89%
    10:00 +13°C° 0.6 mm 0 m/s 736 mmHg 88%
    11:00 +15°C° 0.6 mm 1 m/s 736 mmHg 86%
    12:00 +15°C° 0.6 mm 1 m/s 735 mmHg 85%
    13:00 +18°C° 0 mm 1 m/s 735 mmHg 78%
    14:00 +20°C° 0 mm 1 m/s 735 mmHg 70%
    15:00 +21°C° 0 mm 1 m/s 735 mmHg 62%
    16:00 +22°C° 0 mm 1 m/s 734 mmHg 62%
    17:00 +21°C° 0 mm 2 m/s 734 mmHg 61%
    18:00 +21°C° 0 mm 2 m/s 734 mmHg 60%
    19:00 +20°C° 0 mm 3 m/s 733 mmHg 67%
    20:00 +18°C° 0 mm 3 m/s 733 mmHg 74%
    21:00 +17°C° 0 mm 3 m/s 733 mmHg 81%
    22:00 +16°C° 0 mm 3 m/s 733 mmHg 83%
    23:00 +16°C° 0 mm 3 m/s 732 mmHg 85%

    Après-demain, 27 Mai, Mercredi

    Heure Température Précipitation Vent Pression Humidité
    00:00 +16°C° 0 mm 3 m/s 732 mmHg 86%
    01:00 +16°C° 0.7 mm 3 m/s 732 mmHg 86%
    02:00 +16°C° 0.7 mm 3 m/s 731 mmHg 86%
    03:00 +16°C° 0.7 mm 3 m/s 731 mmHg 86%
    04:00 +15°C° 0.3 mm 4 m/s 731 mmHg 86%
    05:00 +15°C° 0.3 mm 4 m/s 731 mmHg 86%
    06:00 +15°C° 0.3 mm 4 m/s 731 mmHg 87%
    07:00 +16°C° 0 mm 5 m/s 732 mmHg 80%
    08:00 +17°C° 0 mm 6 m/s 732 mmHg 74%
    09:00 +18°C° 0 mm 7 m/s 733 mmHg 68%
    10:00 +18°C° 0 mm 8 m/s 733 mmHg 66%
    11:00 +20°C° 0 mm 8 m/s 733 mmHg 63%
    12:00 +20°C° 0 mm 8 m/s 734 mmHg 61%
    13:00 +20°C° 0 mm 8 m/s 734 mmHg 59%
    14:00 +20°C° 0 mm 8 m/s 735 mmHg 58%
    15:00 +20°C° 0 mm 8 m/s 735 mmHg 57%
    16:00 +20°C° 0 mm 7 m/s 735 mmHg 56%
    17:00 +21°C° 0 mm 7 m/s 735 mmHg 55%
    18:00 +21°C° 0 mm 6 m/s 736 mmHg 55%
    19:00 +20°C° 0.1 mm 5 m/s 736 mmHg 60%
    20:00 +18°C° 0.1 mm 4 m/s 736 mmHg 65%
    21:00 +16°C° 0.1 mm 3 m/s 737 mmHg 71%
    22:00 +16°C° 0 mm 3 m/s 737 mmHg 72%
    23:00 +14°C° 0 mm 4 m/s 737 mmHg 73%

    28 Mai, Jeudi

    Heure Température Précipitation Vent Pression Humidité
    00:00 +13°C° 0 mm 4 m/s 737 mmHg 74%
    01:00 +13°C° 0 mm 4 m/s 737 mmHg 72%
    02:00 +13°C° 0 mm 4 m/s 737 mmHg 71%
    03:00 +12°C° 0 mm 5 m/s 737 mmHg 69%
    04:00 +12°C° 0 mm 5 m/s 737 mmHg 69%
    05:00 +12°C° 0 mm 5 m/s 737 mmHg 68%
    06:00 +11°C° 0 mm 6 m/s 737 mmHg 68%
    07:00 +11°C° 0 mm 7 m/s 737 mmHg 67%
    08:00 +11°C° 0 mm 7 m/s 738 mmHg 66%
    09:00 +12°C° 0 mm 8 m/s 738 mmHg 64%
    10:00 +11°C° 0.3 mm 8 m/s 738 mmHg 70%
    11:00 +10°C° 0.3 mm 8 m/s 739 mmHg 75%
    12:00 +10°C° 0.3 mm 8 m/s 739 mmHg 80%
    13:00 +8°C° 0.1 mm 9 m/s 739 mmHg 80%
    14:00 +8°C° 0.1 mm 9 m/s 740 mmHg 80%
    15:00 +8°C° 0.1 mm 9 m/s 740 mmHg 80%
    16:00 +8°C° 0 mm 9 m/s 741 mmHg 79%
    17:00 +8°C° 0 mm 9 m/s 741 mmHg 78%
    18:00 +9°C° 0 mm 8 m/s 742 mmHg 77%
    19:00 +9°C° 0 mm 8 m/s 743 mmHg 77%
    20:00 +8°C° 0 mm 7 m/s 743 mmHg 77%
    21:00 +8°C° 0 mm 6 m/s 744 mmHg 76%
    22:00 +8°C° 0 mm 6 m/s 745 mmHg 77%
    23:00 +7°C° 0 mm 6 m/s 745 mmHg 78%

    29 Mai, Vendredi

    Heure Température Précipitation Vent Pression Humidité
    00:00 +7°C° 0 mm 6 m/s 745 mmHg 79%
    01:00 +5°C° 0 mm 6 m/s 746 mmHg 80%
    02:00 +5°C° 0 mm 6 m/s 746 mmHg 81%
    03:00 +4°C° 0 mm 6 m/s 746 mmHg 81%
    04:00 +4°C° 0 mm 6 m/s 747 mmHg 81%
    05:00 +5°C° 0 mm 5 m/s 747 mmHg 80%
    06:00 +5°C° 0 mm 5 m/s 747 mmHg 80%
    07:00 +7°C° 0 mm 5 m/s 748 mmHg 76%
    08:00 +8°C° 0 mm 4 m/s 748 mmHg 73%
    09:00 +10°C° 0 mm 4 m/s 748 mmHg 70%
    10:00 +10°C° 0 mm 4 m/s 749 mmHg 70%
    11:00 +10°C° 0 mm 4 m/s 749 mmHg 70%
    12:00 +10°C° 0 mm 4 m/s 749 mmHg 70%
    13:00 +10°C° 0 mm 5 m/s 749 mmHg 67%
    14:00 +10°C° 0 mm 5 m/s 749 mmHg 64%
    15:00 +10°C° 0 mm 5 m/s 749 mmHg 61%
    16:00 +10°C° 0 mm 5 m/s 749 mmHg 61%
    17:00 +11°C° 0 mm 4 m/s 749 mmHg 60%
    18:00 +11°C° 0 mm 4 m/s 748 mmHg 59%
    19:00 +9°C° 0 mm 3 m/s 749 mmHg 64%
    20:00 +8°C° 0 mm 2 m/s 749 mmHg 68%
    21:00 +6°C° 0 mm 2 m/s 749 mmHg 72%
    22:00 +7°C° 0 mm 1 m/s 749 mmHg 70%
    23:00 +6°C° 0 mm 1 m/s 749 mmHg 69%

    30 Mai, Samedi

    Heure Température Précipitation Vent Pression Humidité
    00:00 +4°C° 0 mm 0 m/s 749 mmHg 68%
    01:00 +4°C° 0 mm 0 m/s 749 mmHg 67%
    02:00 +4°C° 0 mm 0 m/s 749 mmHg 67%
    03:00 +3°C° 0 mm 0 m/s 749 mmHg 66%
    04:00 +4°C° 0 mm 0 m/s 749 mmHg 66%
    05:00 +6°C° 0 mm 1 m/s 749 mmHg 65%
    06:00 +6°C° 0 mm 1 m/s 749 mmHg 64%
    07:00 +8°C° 0 mm 1 m/s 749 mmHg 59%
    08:00 +9°C° 0 mm 2 m/s 749 mmHg 54%
    09:00 +12°C° 0 mm 2 m/s 749 mmHg 48%
    10:00 +13°C° 0 mm 2 m/s 748 mmHg 46%
    11:00 +14°C° 0 mm 2 m/s 748 mmHg 43%
    12:00 +14°C° 0 mm 3 m/s 747 mmHg 40%
    13:00 +16°C° 0 mm 3 m/s 747 mmHg 39%
    14:00 +17°C° 0 mm 3 m/s 746 mmHg 37%
    15:00 +18°C° 0 mm 2 m/s 745 mmHg 36%
    16:00 +18°C° 0 mm 2 m/s 744 mmHg 37%
    17:00 +18°C° 0 mm 2 m/s 744 mmHg 39%
    18:00 +18°C° 0 mm 2 m/s 743 mmHg 40%
    19:00 +16°C° 0 mm 2 m/s 743 mmHg 48%
    20:00 +13°C° 0 mm 3 m/s 743 mmHg 56%
    21:00 +11°C° 0 mm 3 m/s 742 mmHg 64%
    22:00 +11°C° 0 mm 3 m/s 742 mmHg 66%
    23:00 +10°C° 0 mm 3 m/s 742 mmHg 68%
    Voir plus